Overview Statistics Trail Chart Weather Telemetry Raw packets
 

This is the latest recevied weather packets stored in our database for station/object N7ZAP. If no packets are shown the sender has not sent any weather packets the latest 10 day(s).

<< 6 7 8 9 10 11 12 >>
Time Temp. Humidity Pressure Rain* Wind** Luminosity Snow
1788650441 34.44° C 20% 1017.5 hPa 0 mm - - -
1788650136 34.44° C 21% 1017.4 hPa 0 mm - - -
1788649833 34.44° C 21% 1017.7 hPa 0 mm - - -
1788649532 35° C 20% 1017.6 hPa 0 mm - - -
1788649231 35° C 21% 1017.7 hPa 0 mm - - -
1788648925 35.56° C 21% 1018 hPa 0 mm - - -
1788648621 35° C 21% 1017.7 hPa 0 mm - - -
1788648315 35° C 21% 1017.7 hPa 0 mm - - -
1788648014 35.56° C 21% 1017.6 hPa 0 mm - - -
1788647713 36.11° C 21% 1017.7 hPa 0 mm - - -
1788647408 36.11° C 21% 1017.8 hPa 0 mm - - -
1788647108 36.11° C 21% 1017.8 hPa 0 mm - - -
1788646803 35.56° C 20% 1018 hPa 0 mm - - -
1788646500 35.56° C 20% 1018.1 hPa 0 mm - - -
1788646195 36.11° C 21% 1018.1 hPa 0 mm - - -
1788645891 35.56° C 21% 1018 hPa 0 mm - - -
1788645590 35° C 21% 1017.8 hPa 0 mm - - -
1788645286 35° C 21% 1018.2 hPa 0 mm - - -
1788644983 34.44° C 21% 1018.2 hPa 0 mm - - -
1788644678 36.11° C 21% 1018.2 hPa 0 mm - - -
1788644378 36.11° C 20% 1018.5 hPa 0 mm - - -
1788644074 36.67° C 20% 1018.5 hPa 0 mm - - -
1788643769 36.67° C 21% 1018.7 hPa 0 mm - - -
1788643464 35.56° C 20% 1018.9 hPa 0 mm - - -
1788643163 35.56° C 22% 1018.9 hPa 0 mm - - -

* Rain latest hour (hover to see other rain measurements)
** Current wind speed in m/s (hover to see current wind gust speed)